DECAYED

STARLINK-32187, 60337 (Decayed)

Orbit data source: Space-Track

STARLINK-32187, 60337 was a payload satellite owned by SpaceX/Seattle (US) in LEO that was launched on Fri, 02 Aug 2024 UTC via an FALCON 9 launch vehicle from the Air Force Eastern Test Range (AFETR). Payloads include a variety of satellites, spacecraft, and rockets equipped with specific instruments for various scientific and technological missions. These include communications satellites like Starlink; space stations such as the ISS; scientific satellites like the Hubble; Earth observation satellites from companies like Planet Labs, Umbra, and HawkEye 360; GPS; miniature CubeSats for education and research; and military/defense satellites.

Not visible in the next 10 days
STARLINK-32187 details
Identifier
60337, 2024-136J
Orbit
Decayed
Last TLE update3 months ago
Origin
Flag of USSpaceX/Seattle (US)
ManufacturerSpaceX/Seattle
MissionDecayed spacecraft
Bus & MotorSTARLINK V2M, Unknown motor
Mass730 kg wet, ~700 kg dry
Launch date (UTC)
2024-08-02 (5 months ago)
Launch vehicle
FALCON 9
Launch site
Air Force Eastern Test Range (AFETR)
Object type
Payload
Rocket body
Debris
Shape & HBRUnknown
Radar Cross SectionLarge (>1 m²)

Expand to show TLE details & history

TLE from 3 months ago
0 STARLINK-32187
1 60337U 24136J   24269.17904794  .04247004  12144-4  84954-3 0  9999
2 60337  53.1356   9.1664 0010681 345.3007  93.1598 16.30510420  9701
Epoch: 2024-09-25T04:17Z
Definitive object data (Epoch: 2024-09-25T04:17:49.742Z)
Latitude51.80588°
Longitude11.60112°
Altitude197.746 km
Speed7.794 km/s
True Right ascension05h 22m 09s
True Declination51° 37' 28"
Sunlit
Object was in daylight at TLE epoch
Visualization observer readout
Observer readout values are unavailable because the object's trajectory could not be propagated. This is usually caused when the trajectory data is faulty or the object's orbit has decayed.
Visualization observer readout
Observer readout values are unavailable because the object's trajectory could not be propagated. This is usually caused when the trajectory data is faulty or the object's orbit has decayed.
Orbital elements
Apogee altitude198.457 km
Perigee altitude184.423 km
Semi-major axis6,569.577 km
Eccentricity0.0010681
Inclination53.1356°
RAAN9.1664°
Arg. of periapsis345.3007°
True anomaly93.282°
Mean anomaly93.1598°
Eccentric anomaly93.2209°
Mean motion4.07603 °/min
BSTAR0.00084954
Orbital period88.32 mins
Loading maneuver chart data...
Loading historical data...
Loading historical data...
Loading historical data...
Loading historical data...
Loading historical data...
Loading historical data...
Loading historical data...

STARLINK-32187 Visibility forecast

Observer location: undefined°, undefined

This satellite is decayed
Span
Click to sort rows by Start time (UTC) header in descending order
Start Az.
Max El. time (UTC)
Max El. Az.
Max El.
End time (UTC)
End Az.
|